Time,TemperatureF,DewpointF,PressureIn,WindDirection,WindDirectionDegrees,WindSpeedMPH,WindSpeedGustMPH,Humidity,HourlyPrecipIn,Conditions,Clouds,dailyrainin,SoftwareType,DateUTC
2013-08-12 00:00:00,80.5,76.3,30.08,NNW,347,0.0,2.0,87,0.00,,---,0.00,VWS V14.01,2013-08-12 04:00:00,
2013-08-12 00:01:00,80.5,76.3,30.08,NNW,347,0.0,2.0,87,0.00,,---,0.00,VWS V14.01,2013-08-12 04:01:00,
2013-08-12 00:05:00,80.5,76.3,30.08,North,350,0.0,4.0,87,0.00,,---,0.00,VWS V14.01,2013-08-12 04:05:00,
2013-08-12 00:10:00,80.3,76.1,30.07,North,5,0.0,5.0,87,0.00,,---,0.00,VWS V14.01,2013-08-12 04:10:00,
2013-08-12 00:15:00,80.2,76.0,30.07,North,355,0.0,5.0,87,0.00,,---,0.00,VWS V14.01,2013-08-12 04:15:00,
2013-08-12 00:20:00,80.0,76.1,30.07,North,360,0.0,6.0,88,0.00,,---,0.00,VWS V14.01,2013-08-12 04:20:00,
2013-08-12 00:25:00,79.9,76.0,30.07,North,355,6.0,6.0,88,0.00,,---,0.00,VWS V14.01,2013-08-12 04:25:00,
2013-08-12 00:30:00,79.9,76.0,30.07,NNW,348,2.0,3.0,88,0.00,,---,0.00,VWS V14.01,2013-08-12 04:30:00,
2013-08-12 00:35:00,79.8,75.9,30.07,North,355,0.0,3.0,88,0.00,,---,0.00,VWS V14.01,2013-08-12 04:35:00,
2013-08-12 00:40:00,79.7,75.8,30.07,North,355,0.0,5.0,88,0.00,,---,0.00,VWS V14.01,2013-08-12 04:40:00,
2013-08-12 00:45:00,79.7,75.8,30.07,North,355,0.0,6.0,88,0.00,,---,0.00,VWS V14.01,2013-08-12 04:45:00,
2013-08-12 00:50:00,79.6,75.7,30.07,North,355,4.0,6.0,88,0.00,,---,0.00,VWS V14.01,2013-08-12 04:50:00,
2013-08-12 00:55:00,79.5,75.6,30.07,North,5,1.0,6.0,88,0.00,,---,0.00,VWS V14.01,2013-08-12 04:55:00,
2013-08-12 01:00:00,79.5,75.6,30.06,North,5,0.0,1.0,88,0.00,,---,0.00,VWS V14.01,2013-08-12 05:00:00,
2013-08-12 01:05:00,79.4,75.5,30.06,NNW,343,0.0,6.0,88,0.00,,---,0.00,VWS V14.01,2013-08-12 05:05:00,
2013-08-12 01:10:00,79.4,75.5,30.06,North,5,0.0,6.0,88,0.00,,---,0.00,VWS V14.01,2013-08-12 05:10:00,
2013-08-12 01:15:00,79.3,75.4,30.06,North,5,0.0,6.0,88,0.00,,---,0.00,VWS V14.01,2013-08-12 05:15:00,
2013-08-12 01:20:00,79.3,75.4,30.06,North,5,0.0,6.0,88,0.00,,---,0.00,VWS V14.01,2013-08-12 05:20:00,
2013-08-12 01:25:00,79.2,75.3,30.06,North,5,0.0,6.0,88,0.00,,---,0.00,VWS V14.01,2013-08-12 05:25:00,
2013-08-12 01:30:00,79.2,75.3,30.07,North,5,0.0,0.0,88,0.00,,---,0.00,VWS V14.01,2013-08-12 05:30:00,
2013-08-12 01:35:00,79.1,75.2,30.07,North,5,0.0,3.0,88,0.00,,---,0.00,VWS V14.01,2013-08-12 05:35:00,
2013-08-12 01:40:00,79.1,75.2,30.07,North,5,0.0,3.0,88,0.00,,---,0.00,VWS V14.01,2013-08-12 05:40:00,
2013-08-12 01:45:00,79.1,75.2,30.07,North,5,0.0,3.0,88,0.00,,---,0.00,VWS V14.01,2013-08-12 05:45:00,
2013-08-12 01:50:00,79.0,75.2,30.07,North,5,0.0,3.0,88,0.00,,---,0.00,VWS V14.01,2013-08-12 05:50:00,
2013-08-12 01:55:00,78.9,75.1,30.07,North,5,0.0,3.0,88,0.00,,---,0.00,VWS V14.01,2013-08-12 05:55:00,
2013-08-12 02:00:00,78.9,75.1,30.07,North,5,1.0,1.0,88,0.00,,---,0.00,VWS V14.01,2013-08-12 06:00:00,
2013-08-12 02:05:00,78.8,74.9,30.06,North,5,0.0,4.0,88,0.00,,---,0.00,VWS V14.01,2013-08-12 06:05:00,
2013-08-12 02:10:00,78.8,75.3,30.06,North,5,1.0,4.0,89,0.00,,---,0.00,VWS V14.01,2013-08-12 06:10:00,
2013-08-12 02:15:00,78.7,75.2,30.06,North,5,0.0,4.0,89,0.00,,---,0.00,VWS V14.01,2013-08-12 06:15:00,
2013-08-12 02:20:00,78.7,75.2,30.06,North,5,0.0,4.0,89,0.00,,---,0.00,VWS V14.01,2013-08-12 06:20:00,
2013-08-12 02:25:00,78.6,75.1,30.06,North,5,0.0,4.0,89,0.00,,---,0.00,VWS V14.01,2013-08-12 06:25:00,
2013-08-12 02:30:00,78.6,75.1,30.06,North,5,0.0,1.0,89,0.00,,---,0.00,VWS V14.01,2013-08-12 06:30:00,
2013-08-12 02:35:00,78.5,75.0,30.06,North,5,0.0,1.0,89,0.00,,---,0.00,VWS V14.01,2013-08-12 06:35:00,
2013-08-12 02:40:00,78.4,74.9,30.05,North,5,0.0,3.0,89,0.00,,---,0.00,VWS V14.01,2013-08-12 06:40:00,
2013-08-12 02:45:00,78.3,74.8,30.06,North,5,0.0,3.0,89,0.00,,---,0.00,VWS V14.01,2013-08-12 06:45:00,
2013-08-12 02:50:00,78.2,74.7,30.05,North,5,0.0,4.0,89,0.00,,---,0.00,VWS V14.01,2013-08-12 06:50:00,
2013-08-12 02:55:00,78.1,74.9,30.05,North,5,0.0,4.0,90,0.00,,---,0.00,VWS V14.01,2013-08-12 06:55:00,
2013-08-12 03:00:00,78.1,74.9,30.05,North,5,0.0,1.0,90,0.00,,---,0.00,VWS V14.01,2013-08-12 07:00:00,
2013-08-12 03:05:00,78.0,74.8,30.05,North,5,0.0,4.0,90,0.00,,---,0.00,VWS V14.01,2013-08-12 07:05:00,
2013-08-12 03:10:00,78.0,74.8,30.05,North,5,0.0,4.0,90,0.00,,---,0.00,VWS V14.01,2013-08-12 07:10:00,
2013-08-12 03:15:00,77.9,74.7,30.05,North,5,0.0,4.0,90,0.00,,---,0.00,VWS V14.01,2013-08-12 07:15:00,
2013-08-12 03:20:00,77.9,74.7,30.05,North,5,0.0,4.0,90,0.00,,---,0.00,VWS V14.01,2013-08-12 07:20:00,
2013-08-12 03:25:00,77.8,74.6,30.06,North,5,0.0,4.0,90,0.00,,---,0.00,VWS V14.01,2013-08-12 07:25:00,
2013-08-12 03:30:00,77.8,74.6,30.06,North,5,0.0,0.0,90,0.00,,---,0.00,VWS V14.01,2013-08-12 07:30:00,
2013-08-12 03:35:00,77.7,74.5,30.05,North,5,0.0,1.0,90,0.00,,---,0.00,VWS V14.01,2013-08-12 07:35:00,
2013-08-12 03:40:00,77.7,74.5,30.05,North,5,0.0,1.0,90,0.00,,---,0.00,VWS V14.01,2013-08-12 07:40:00,
2013-08-12 03:45:00,77.6,74.8,30.06,North,5,0.0,4.0,91,0.00,,---,0.00,VWS V14.01,2013-08-12 07:45:00,
2013-08-12 03:50:00,77.6,74.8,30.06,North,5,0.0,4.0,91,0.00,,---,0.00,VWS V14.01,2013-08-12 07:50:00,
2013-08-12 03:55:00,77.5,74.7,30.06,North,5,0.0,4.0,91,0.00,,---,0.00,VWS V14.01,2013-08-12 07:55:00,
2013-08-12 04:00:00,77.5,74.7,30.06,North,5,0.0,1.0,91,0.00,,---,0.00,VWS V14.01,2013-08-12 08:00:00,
2013-08-12 04:05:00,77.5,74.7,30.06,North,5,0.0,1.0,91,0.00,,---,0.00,VWS V14.01,2013-08-12 08:05:00,
2013-08-12 04:10:00,77.5,74.7,30.05,North,5,0.0,1.0,91,0.00,,---,0.00,VWS V14.01,2013-08-12 08:10:00,
2013-08-12 04:15:00,77.5,74.7,30.05,North,5,0.0,3.0,91,0.00,,---,0.00,VWS V14.01,2013-08-12 08:15:00,
2013-08-12 04:20:00,77.6,74.8,30.05,North,5,0.0,3.0,91,0.00,,---,0.00,VWS V14.01,2013-08-12 08:20:00,
2013-08-12 04:25:00,77.6,74.8,30.05,North,5,0.0,3.0,91,0.00,,---,0.00,VWS V14.01,2013-08-12 08:25:00,
2013-08-12 04:30:00,77.6,74.8,30.05,North,5,0.0,0.0,91,0.00,,---,0.00,VWS V14.01,2013-08-12 08:30:00,
2013-08-12 04:35:00,77.5,74.7,30.05,North,5,0.0,1.0,91,0.00,,---,0.00,VWS V14.01,2013-08-12 08:35:00,
2013-08-12 04:40:00,77.5,74.7,30.05,North,5,0.0,1.0,91,0.00,,---,0.00,VWS V14.01,2013-08-12 08:40:00,
2013-08-12 04:45:00,77.5,74.7,30.05,North,5,0.0,1.0,91,0.00,,---,0.00,VWS V14.01,2013-08-12 08:45:00,
2013-08-12 04:50:00,77.5,74.7,30.05,North,5,0.0,1.0,91,0.00,,---,0.00,VWS V14.01,2013-08-12 08:50:00,
2013-08-12 04:55:00,77.5,74.7,30.05,North,5,0.0,1.0,91,0.00,,---,0.00,VWS V14.01,2013-08-12 08:55:00,
2013-08-12 05:00:00,77.4,74.6,30.05,North,5,0.0,1.0,91,0.00,,---,0.00,VWS V14.01,2013-08-12 09:00:00,
2013-08-12 05:05:00,77.5,74.7,30.05,North,5,0.0,1.0,91,0.00,,---,0.00,VWS V14.01,2013-08-12 09:05:00,
2013-08-12 05:10:00,77.5,74.7,30.05,North,5,0.0,1.0,91,0.00,,---,0.00,VWS V14.01,2013-08-12 09:10:00,
2013-08-12 05:15:00,77.6,74.8,30.05,North,5,0.0,1.0,91,0.00,,---,0.00,VWS V14.01,2013-08-12 09:15:00,
2013-08-12 05:20:00,77.6,74.8,30.05,North,5,0.0,1.0,91,0.00,,---,0.00,VWS V14.01,2013-08-12 09:20:00,
2013-08-12 05:25:00,77.6,74.4,30.05,North,5,0.0,1.0,90,0.00,,---,0.00,VWS V14.01,2013-08-12 09:25:00,
2013-08-12 05:30:00,77.7,74.5,30.05,North,5,0.0,0.0,90,0.00,,---,0.00,VWS V14.01,2013-08-12 09:30:00,
2013-08-12 05:35:00,77.8,74.6,30.05,North,5,0.0,0.0,90,0.00,,---,0.00,VWS V14.01,2013-08-12 09:35:00,
2013-08-12 05:40:00,77.7,74.5,30.05,North,5,0.0,1.0,90,0.00,,---,0.00,VWS V14.01,2013-08-12 09:40:00,
2013-08-12 05:45:00,77.7,74.5,30.05,North,5,0.0,1.0,90,0.00,,---,0.00,VWS V14.01,2013-08-12 09:45:00,
2013-08-12 05:50:00,77.7,74.5,30.05,North,5,0.0,1.0,90,0.00,,---,0.00,VWS V14.01,2013-08-12 09:50:00,
2013-08-12 05:55:00,77.6,74.4,30.05,North,5,0.0,1.0,90,0.00,,---,0.00,VWS V14.01,2013-08-12 09:55:00,
2013-08-12 06:00:00,77.6,74.4,30.05,North,5,0.0,1.0,90,0.00,,---,0.00,VWS V14.01,2013-08-12 10:00:00,
2013-08-12 06:05:00,77.5,74.3,30.05,North,5,0.0,1.0,90,0.00,,---,0.00,VWS V14.01,2013-08-12 10:05:00,
2013-08-12 06:10:00,77.4,74.2,30.05,North,5,0.0,1.0,90,0.00,,---,0.00,VWS V14.01,2013-08-12 10:10:00,
2013-08-12 06:15:00,77.3,74.1,30.05,North,5,0.0,1.0,90,0.00,,---,0.00,VWS V14.01,2013-08-12 10:15:00,
2013-08-12 06:20:00,77.3,74.1,30.06,North,5,0.0,1.0,90,0.00,,---,0.00,VWS V14.01,2013-08-12 10:20:00,
2013-08-12 06:25:00,77.2,74.0,30.06,North,5,0.0,1.0,90,0.00,,---,0.00,VWS V14.01,2013-08-12 10:25:00,
2013-08-12 06:30:00,77.1,73.9,30.06,North,5,0.0,0.0,90,0.00,,---,0.00,VWS V14.01,2013-08-12 10:30:00,
2013-08-12 06:35:00,77.1,74.3,30.06,North,5,0.0,0.0,91,0.00,,---,0.00,VWS V14.01,2013-08-12 10:35:00,
2013-08-12 06:40:00,77.1,74.3,30.06,North,5,0.0,1.0,91,0.00,,---,0.00,VWS V14.01,2013-08-12 10:40:00,
2013-08-12 06:45:00,77.0,74.2,30.06,North,5,0.0,1.0,91,0.00,,---,0.00,VWS V14.01,2013-08-12 10:45:00,
2013-08-12 06:50:00,77.0,74.2,30.06,North,5,0.0,1.0,91,0.00,,---,0.00,VWS V14.01,2013-08-12 10:50:00,
2013-08-12 06:55:00,77.0,74.2,30.06,North,5,0.0,1.0,91,0.00,,---,0.00,VWS V14.01,2013-08-12 10:55:00,
2013-08-12 07:00:00,76.9,74.1,30.06,North,5,0.0,4.0,91,0.00,,---,0.00,VWS V14.01,2013-08-12 11:00:00,
2013-08-12 07:05:00,76.9,74.1,30.06,North,5,0.0,4.0,91,0.00,,---,0.00,VWS V14.01,2013-08-12 11:05:00,
2013-08-12 07:10:00,76.9,74.1,30.06,North,5,0.0,4.0,91,0.00,,---,0.00,VWS V14.01,2013-08-12 11:10:00,
2013-08-12 07:15:00,76.9,74.1,30.06,North,5,4.0,4.0,91,0.00,,---,0.00,VWS V14.01,2013-08-12 11:15:00,
2013-08-12 07:20:00,77.0,74.2,30.06,North,5,4.0,5.0,91,0.00,,---,0.00,VWS V14.01,2013-08-12 11:20:00,
2013-08-12 07:25:00,77.1,74.3,30.06,North,5,0.0,5.0,91,0.00,,---,0.00,VWS V14.01,2013-08-12 11:25:00,
2013-08-12 07:30:00,77.2,74.4,30.06,North,5,0.0,0.0,91,0.00,,---,0.00,VWS V14.01,2013-08-12 11:30:00,
2013-08-12 07:35:00,77.4,74.6,30.06,North,5,0.0,0.0,91,0.00,,---,0.00,VWS V14.01,2013-08-12 11:35:00,
2013-08-12 07:40:00,77.6,74.4,30.06,North,5,0.0,1.0,90,0.00,,---,0.00,VWS V14.01,2013-08-12 11:40:00,
2013-08-12 07:45:00,77.8,74.6,30.06,North,360,0.0,5.0,90,0.00,,---,0.00,VWS V14.01,2013-08-12 11:45:00,
2013-08-12 07:50:00,78.0,74.8,30.06,North,360,0.0,5.0,90,0.00,,---,0.00,VWS V14.01,2013-08-12 11:50:00,
2013-08-12 07:55:00,78.3,75.1,30.06,ENE,63,4.0,5.0,90,0.00,,---,0.00,VWS V14.01,2013-08-12 11:55:00,
2013-08-12 08:00:00,78.5,75.0,30.06,ENE,76,0.0,4.0,89,0.00,,---,0.00,VWS V14.01,2013-08-12 12:00:00,
2013-08-12 08:05:00,78.9,75.4,30.06,NNW,342,0.0,4.0,89,0.00,,---,0.00,VWS V14.01,2013-08-12 12:05:00,
2013-08-12 08:10:00,79.2,75.3,30.06,ENE,64,2.0,6.0,88,0.00,,---,0.00,VWS V14.01,2013-08-12 12:10:00,
2013-08-12 08:15:00,79.4,75.5,30.06,North,360,4.0,7.0,88,0.00,,---,0.00,VWS V14.01,2013-08-12 12:15:00,
2013-08-12 08:20:00,79.7,75.5,30.06,NE,48,0.0,7.0,87,0.00,,---,0.00,VWS V14.01,2013-08-12 12:20:00,
2013-08-12 08:25:00,80.1,75.9,30.06,North,11,0.0,7.0,87,0.00,,---,0.00,VWS V14.01,2013-08-12 12:25:00,
2013-08-12 08:30:00,80.4,75.8,30.06,NE,42,0.0,4.0,86,0.00,,---,0.00,VWS V14.01,2013-08-12 12:30:00,
2013-08-12 08:35:00,80.7,76.1,30.06,NNE,25,0.0,5.0,86,0.00,,---,0.00,VWS V14.01,2013-08-12 12:35:00,
2013-08-12 08:40:00,81.1,76.2,30.06,ENE,67,7.0,7.0,85,0.00,,---,0.00,VWS V14.01,2013-08-12 12:40:00,
2013-08-12 08:46:00,81.4,76.5,30.06,North,10,0.0,7.0,85,0.00,,---,0.00,VWS V14.01,2013-08-12 12:46:00,
2013-08-12 08:51:00,81.6,76.3,30.06,ENE,74,2.0,9.0,84,0.00,,---,0.00,VWS V14.01,2013-08-12 12:51:00,
2013-08-12 08:56:00,82.0,76.7,30.06,ENE,59,3.0,9.0,84,0.00,,---,0.00,VWS V14.01,2013-08-12 12:56:00,
2013-08-12 09:00:00,82.1,76.4,30.06,NE,44,0.0,9.0,83,0.00,,---,0.00,VWS V14.01,2013-08-12 13:00:00,
2013-08-12 09:01:00,82.3,76.6,30.06,ENE,57,1.0,5.0,83,0.00,,---,0.00,VWS V14.01,2013-08-12 13:01:00,
2013-08-12 09:05:00,82.6,76.6,30.06,East,93,0.0,6.0,82,0.00,,---,0.00,VWS V14.01,2013-08-12 13:05:00,
2013-08-12 09:11:00,83.0,76.9,30.06,NE,44,4.0,9.0,82,0.00,,---,0.00,VWS V14.01,2013-08-12 13:11:00,
2013-08-12 09:16:00,83.2,77.1,30.06,ENE,58,0.0,9.0,82,0.00,,---,0.00,VWS V14.01,2013-08-12 13:16:00,
2013-08-12 09:21:00,83.6,77.2,30.06,East,90,3.0,9.0,81,0.00,,---,0.00,VWS V14.01,2013-08-12 13:21:00,
2013-08-12 09:26:00,83.9,77.1,30.06,NE,52,3.0,9.0,80,0.00,,---,0.00,VWS V14.01,2013-08-12 13:26:00,
2013-08-12 09:30:00,84.2,77.4,30.06,ENE,75,5.0,9.0,80,0.00,,---,0.00,VWS V14.01,2013-08-12 13:30:00,
2013-08-12 09:31:00,84.3,77.5,30.06,NE,51,4.0,5.0,80,0.00,,---,0.00,VWS V14.01,2013-08-12 13:31:00,
2013-08-12 09:36:00,84.4,77.2,30.06,ENE,70,0.0,8.0,79,0.00,,---,0.00,VWS V14.01,2013-08-12 13:36:00,
2013-08-12 09:41:00,84.7,77.5,30.06,ENE,72,0.0,8.0,79,0.00,,---,0.00,VWS V14.01,2013-08-12 13:41:00,
2013-08-12 09:46:00,85.3,77.7,30.05,ENE,61,0.0,8.0,78,0.00,,---,0.00,VWS V14.01,2013-08-12 13:46:00,
2013-08-12 09:51:00,85.7,77.7,30.05,NNW,346,0.0,8.0,77,0.00,,---,0.00,VWS V14.01,2013-08-12 13:51:00,
2013-08-12 09:56:00,86.1,77.7,30.05,NE,41,0.0,8.0,76,0.00,,---,0.00,VWS V14.01,2013-08-12 13:56:00,
2013-08-12 10:00:00,86.0,77.6,30.05,ENE,63,5.0,8.0,76,0.00,,---,0.00,VWS V14.01,2013-08-12 14:00:00,
2013-08-12 10:01:00,85.9,77.5,30.05,NE,52,0.0,4.0,76,0.00,,---,0.00,VWS V14.01,2013-08-12 14:01:00,
2013-08-12 10:06:00,85.9,77.9,30.05,ENE,62,0.0,6.0,77,0.00,,---,0.00,VWS V14.01,2013-08-12 14:06:00,
2013-08-12 10:11:00,86.1,78.1,30.05,NE,47,0.0,9.0,77,0.00,,---,0.00,VWS V14.01,2013-08-12 14:11:00,
2013-08-12 10:16:00,86.4,77.9,30.05,NE,40,0.0,9.0,76,0.00,,---,0.00,VWS V14.01,2013-08-12 14:16:00,
2013-08-12 10:21:00,86.7,78.2,30.05,NE,44,6.0,9.0,76,0.00,,---,0.00,VWS V14.01,2013-08-12 14:21:00,
2013-08-12 10:26:00,86.8,77.5,30.05,NNW,345,0.0,9.0,74,0.00,,---,0.00,VWS V14.01,2013-08-12 14:26:00,
2013-08-12 10:30:00,87.1,77.4,30.05,ENE,57,1.0,9.0,73,0.00,,---,0.00,VWS V14.01,2013-08-12 14:30:00,
2013-08-12 10:31:00,87.2,77.5,30.05,ENE,75,1.0,7.0,73,0.00,,---,0.00,VWS V14.01,2013-08-12 14:31:00,
2013-08-12 10:36:00,87.3,77.2,30.05,North,9,0.0,8.0,72,0.00,,---,0.00,VWS V14.01,2013-08-12 14:36:00,
2013-08-12 10:41:00,87.7,77.6,30.05,ENE,60,0.0,8.0,72,0.00,,---,0.00,VWS V14.01,2013-08-12 14:41:00,
2013-08-12 10:46:00,88.4,78.2,30.05,NE,53,0.0,8.0,72,0.00,,---,0.00,VWS V14.01,2013-08-12 14:46:00,
2013-08-12 10:51:00,88.9,77.8,30.05,North,11,0.0,8.0,70,0.00,,---,0.00,VWS V14.01,2013-08-12 14:51:00,
2013-08-12 10:56:00,89.0,77.1,30.05,ENE,61,5.0,9.0,68,0.00,,---,0.00,VWS V14.01,2013-08-12 14:56:00,
2013-08-12 11:00:00,88.9,77.4,30.05,ENE,59,3.0,9.0,69,0.00,,---,0.00,VWS V14.01,2013-08-12 15:00:00,
2013-08-12 11:01:00,88.7,77.2,30.05,ENE,57,0.0,8.0,69,0.00,,---,0.00,VWS V14.01,2013-08-12 15:01:00,
2013-08-12 11:06:00,88.4,76.9,30.05,ENE,65,3.0,11.0,69,0.00,,---,0.00,VWS V14.01,2013-08-12 15:06:00,
2013-08-12 11:11:00,88.6,77.6,30.05,NE,53,0.0,11.0,70,0.00,,---,0.00,VWS V14.01,2013-08-12 15:11:00,
2013-08-12 11:16:00,88.8,77.3,30.05,ENE,58,1.0,11.0,69,0.00,,---,0.00,VWS V14.01,2013-08-12 15:16:00,
2013-08-12 11:21:00,89.2,77.7,30.05,East,83,0.0,11.0,69,0.00,,---,0.00,VWS V14.01,2013-08-12 15:21:00,
2013-08-12 11:26:00,89.2,77.7,30.04,SSE,162,0.0,11.0,69,0.00,,---,0.00,VWS V14.01,2013-08-12 15:26:00,
2013-08-12 11:30:00,89.5,77.6,30.04,NE,45,0.0,11.0,68,0.00,,---,0.00,VWS V14.01,2013-08-12 15:30:00,
2013-08-12 11:31:00,89.5,77.6,30.04,NE,40,1.0,5.0,68,0.00,,---,0.00,VWS V14.01,2013-08-12 15:31:00,
2013-08-12 11:36:00,89.9,77.5,30.04,NNE,17,0.0,7.0,67,0.00,,---,0.00,VWS V14.01,2013-08-12 15:36:00,
2013-08-12 11:41:00,90.5,77.6,30.04,NE,35,4.0,7.0,66,0.00,,---,0.00,VWS V14.01,2013-08-12 15:41:00,
2013-08-12 11:46:00,90.4,77.5,30.04,NE,40,0.0,9.0,66,0.00,,---,0.00,VWS V14.01,2013-08-12 15:46:00,
2013-08-12 11:51:00,90.7,77.8,30.04,NE,48,4.0,9.0,66,0.00,,---,0.00,VWS V14.01,2013-08-12 15:51:00,
2013-08-12 11:56:00,90.5,76.7,30.04,ENE,63,4.0,11.0,64,0.00,,---,0.00,VWS V14.01,2013-08-12 15:56:00,
2013-08-12 12:00:00,90.5,77.1,30.04,NE,34,0.0,11.0,65,0.00,,---,0.00,VWS V14.01,2013-08-12 16:00:00,
2013-08-12 12:01:00,90.6,76.8,30.04,East,81,0.0,11.0,64,0.00,,---,0.00,VWS V14.01,2013-08-12 16:01:00,
2013-08-12 12:06:00,91.0,76.7,30.04,NNE,31,3.0,11.0,63,0.00,,---,0.00,VWS V14.01,2013-08-12 16:06:00,
2013-08-12 12:11:00,91.0,76.2,30.04,NE,39,8.0,11.0,62,0.00,,---,0.00,VWS V14.01,2013-08-12 16:11:00,
2013-08-12 12:16:00,91.0,77.1,30.03,NNE,30,1.0,11.0,64,0.00,,---,0.00,VWS V14.01,2013-08-12 16:16:00,
2013-08-12 12:21:00,91.0,77.1,30.03,NNE,28,0.0,11.0,64,0.00,,---,0.00,VWS V14.01,2013-08-12 16:21:00,
2013-08-12 12:26:00,91.2,77.3,30.03,North,5,4.0,11.0,64,0.00,,---,0.00,VWS V14.01,2013-08-12 16:26:00,
2013-08-12 12:30:00,91.4,77.0,30.03,NE,44,0.0,11.0,63,0.00,,---,0.00,VWS V14.01,2013-08-12 16:30:00,
2013-08-12 12:31:00,91.7,77.3,30.03,NE,52,0.0,9.0,63,0.00,,---,0.00,VWS V14.01,2013-08-12 16:31:00,
2013-08-12 12:36:00,91.8,76.9,30.03,NE,54,0.0,12.0,62,0.00,,---,0.00,VWS V14.01,2013-08-12 16:36:00,
2013-08-12 12:41:00,91.7,77.3,30.02,ESE,109,1.0,12.0,63,0.00,,---,0.00,VWS V14.01,2013-08-12 16:41:00,
2013-08-12 12:46:00,92.0,77.6,30.02,NNE,14,0.0,12.0,63,0.00,,---,0.00,VWS V14.01,2013-08-12 16:46:00,
2013-08-12 12:51:00,92.0,76.1,30.02,ENE,65,5.0,12.0,60,0.00,,---,0.00,VWS V14.01,2013-08-12 16:51:00,
2013-08-12 12:56:00,92.0,76.6,30.02,ENE,61,13.0,13.0,61,0.00,,---,0.00,VWS V14.01,2013-08-12 16:56:00,
2013-08-12 13:00:00,92.1,76.7,30.02,SSE,166,0.0,13.0,61,0.00,,---,0.00,VWS V14.01,2013-08-12 17:00:00,
2013-08-12 13:01:00,92.4,77.0,30.02,ENE,75,3.0,5.0,61,0.00,,---,0.00,VWS V14.01,2013-08-12 17:01:00,
2013-08-12 13:06:00,92.8,76.9,30.02,North,351,0.0,7.0,60,0.00,,---,0.00,VWS V14.01,2013-08-12 17:06:00,
2013-08-12 13:11:00,93.1,77.7,30.02,NE,51,0.0,7.0,61,0.00,,---,0.00,VWS V14.01,2013-08-12 17:11:00,
2013-08-12 13:16:00,93.0,77.1,30.02,East,88,0.0,11.0,60,0.00,,---,0.00,VWS V14.01,2013-08-12 17:16:00,
2013-08-12 13:21:00,92.6,76.7,30.02,NE,52,0.0,12.0,60,0.00,,---,0.00,VWS V14.01,2013-08-12 17:21:00,
2013-08-12 13:26:00,92.6,76.7,30.01,NE,47,4.0,12.0,60,0.00,,---,0.00,VWS V14.01,2013-08-12 17:26:00,
2013-08-12 13:30:00,92.6,77.2,30.01,NE,48,8.0,12.0,61,0.00,,---,0.00,VWS V14.01,2013-08-12 17:30:00,
2013-08-12 13:31:00,92.7,76.8,30.01,NE,44,0.0,10.0,60,0.00,,---,0.00,VWS V14.01,2013-08-12 17:31:00,
2013-08-12 13:36:00,93.3,77.3,30.01,North,360,0.0,10.0,60,0.00,,---,0.00,VWS V14.01,2013-08-12 17:36:00,
2013-08-12 13:41:00,93.8,76.8,30.01,ENE,67,3.0,10.0,58,0.00,,---,0.00,VWS V14.01,2013-08-12 17:41:00,
2013-08-12 13:46:00,93.5,77.0,30.01,ENE,57,0.0,10.0,59,0.00,,---,0.00,VWS V14.01,2013-08-12 17:46:00,
2013-08-12 13:51:00,92.8,75.9,30.01,NNE,24,0.0,10.0,58,0.00,,---,0.00,VWS V14.01,2013-08-12 17:51:00,
2013-08-12 13:56:00,93.4,76.9,30.00,ENE,71,4.0,10.0,59,0.00,,---,0.00,VWS V14.01,2013-08-12 17:56:00,
2013-08-12 14:00:00,93.6,77.1,30.00,NE,53,0.0,10.0,59,0.00,,---,0.00,VWS V14.01,2013-08-12 18:00:00,
2013-08-12 14:02:00,94.0,76.5,30.00,NNE,22,0.0,8.0,57,0.00,,---,0.00,VWS V14.01,2013-08-12 18:02:00,
2013-08-12 14:07:00,94.2,76.1,30.00,ENE,59,0.0,9.0,56,0.00,,---,0.00,VWS V14.01,2013-08-12 18:07:00,
2013-08-12 14:12:00,93.9,76.4,30.00,NNW,333,0.0,9.0,57,0.00,,---,0.00,VWS V14.01,2013-08-12 18:12:00,
2013-08-12 14:17:00,93.7,77.2,30.00,ENE,67,1.0,9.0,59,0.00,,---,0.00,VWS V14.01,2013-08-12 18:17:00,
2013-08-12 14:22:00,93.6,77.1,30.00,ENE,63,0.0,9.0,59,0.00,,---,0.00,VWS V14.01,2013-08-12 18:22:00,
2013-08-12 14:27:00,93.5,76.5,30.00,ENE,67,0.0,9.0,58,0.00,,---,0.00,VWS V14.01,2013-08-12 18:27:00,
2013-08-12 14:30:00,93.6,76.6,30.00,North,355,2.0,9.0,58,0.00,,---,0.00,VWS V14.01,2013-08-12 18:30:00,
2013-08-12 14:32:00,93.9,76.9,30.00,NE,49,1.0,7.0,58,0.00,,---,0.00,VWS V14.01,2013-08-12 18:32:00,
2013-08-12 14:37:00,94.1,77.1,30.00,East,96,5.0,9.0,58,0.00,,---,0.00,VWS V14.01,2013-08-12 18:37:00,
2013-08-12 14:42:00,94.1,76.0,30.00,NE,36,1.0,9.0,56,0.00,,---,0.00,VWS V14.01,2013-08-12 18:42:00,
2013-08-12 14:47:00,94.0,75.9,30.00,ENE,57,8.0,10.0,56,0.00,,---,0.00,VWS V14.01,2013-08-12 18:47:00,
2013-08-12 14:52:00,94.0,75.9,29.99,NE,52,1.0,10.0,56,0.00,,---,0.00,VWS V14.01,2013-08-12 18:52:00,
2013-08-12 14:57:00,94.5,76.4,29.99,ENE,73,0.0,10.0,56,0.00,,---,0.00,VWS V14.01,2013-08-12 18:57:00,
2013-08-12 15:00:00,94.8,76.1,29.99,NE,53,0.0,10.0,55,0.00,,---,0.00,VWS V14.01,2013-08-12 19:00:00,
2013-08-12 15:02:00,95.2,75.9,29.99,NNW,342,1.0,7.0,54,0.00,,---,0.00,VWS V14.01,2013-08-12 19:02:00,
2013-08-12 15:07:00,95.2,75.9,29.99,ENE,76,1.0,9.0,54,0.00,,---,0.00,VWS V14.01,2013-08-12 19:07:00,
2013-08-12 15:12:00,94.9,75.7,29.98,ENE,63,0.0,9.0,54,0.00,,---,0.00,VWS V14.01,2013-08-12 19:12:00,
2013-08-12 15:17:00,94.7,75.5,29.99,ENE,74,0.0,15.0,54,0.00,,---,0.00,VWS V14.01,2013-08-12 19:17:00,
2013-08-12 15:22:00,94.4,76.3,29.98,NNW,345,0.0,15.0,56,0.00,,---,0.00,VWS V14.01,2013-08-12 19:22:00,
2013-08-12 15:27:00,94.1,76.0,29.98,SE,144,0.0,15.0,56,0.00,,---,0.00,VWS V14.01,2013-08-12 19:27:00,
2013-08-12 15:30:00,94.2,76.1,29.98,SE,143,0.0,15.0,56,0.00,,---,0.00,VWS V14.01,2013-08-12 19:30:00,
2013-08-12 15:32:00,94.5,76.4,29.98,SSW,196,1.0,4.0,56,0.00,,---,0.00,VWS V14.01,2013-08-12 19:32:00,
2013-08-12 15:37:00,94.8,76.1,29.97,ENE,65,0.0,4.0,55,0.00,,---,0.00,VWS V14.01,2013-08-12 19:37:00,
2013-08-12 15:42:00,95.3,75.5,29.97,NE,53,0.0,8.0,53,0.00,,---,0.00,VWS V14.01,2013-08-12 19:42:00,
2013-08-12 15:47:00,94.9,75.1,29.97,NE,54,0.0,11.0,53,0.00,,---,0.00,VWS V14.01,2013-08-12 19:47:00,
2013-08-12 15:52:00,94.7,75.5,29.97,ENE,69,0.0,11.0,54,0.00,,---,0.00,VWS V14.01,2013-08-12 19:52:00,
2013-08-12 15:57:00,95.2,75.9,29.97,NE,53,2.0,11.0,54,0.00,,---,0.00,VWS V14.01,2013-08-12 19:57:00,
2013-08-12 16:00:00,95.3,75.5,29.97,NE,39,5.0,11.0,53,0.00,,---,0.00,VWS V14.01,2013-08-12 20:00:00,
2013-08-12 16:02:00,95.1,75.8,29.97,NNE,21,0.0,6.0,54,0.00,,---,0.00,VWS V14.01,2013-08-12 20:02:00,
2013-08-12 16:07:00,95.2,76.5,29.97,East,95,7.0,7.0,55,0.00,,---,0.00,VWS V14.01,2013-08-12 20:07:00,
2013-08-12 16:12:00,95.3,76.0,29.97,ENE,57,0.0,10.0,54,0.00,,---,0.00,VWS V14.01,2013-08-12 20:12:00,
2013-08-12 16:17:00,95.3,76.0,29.97,NNE,27,0.0,10.0,54,0.00,,---,0.00,VWS V14.01,2013-08-12 20:17:00,
2013-08-12 16:22:00,94.9,76.2,29.96,NE,46,0.0,10.0,55,0.00,,---,0.00,VWS V14.01,2013-08-12 20:22:00,
2013-08-12 16:27:00,95.2,76.5,29.96,NE,49,0.0,10.0,55,0.00,,---,0.00,VWS V14.01,2013-08-12 20:27:00,
2013-08-12 16:30:00,95.2,76.5,29.96,NE,44,0.0,10.0,55,0.00,,---,0.00,VWS V14.01,2013-08-12 20:30:00,
2013-08-12 16:32:00,95.2,75.9,29.96,NE,46,0.0,7.0,54,0.00,,---,0.00,VWS V14.01,2013-08-12 20:32:00,
2013-08-12 16:37:00,95.3,76.6,29.96,ENE,62,0.0,7.0,55,0.00,,---,0.00,VWS V14.01,2013-08-12 20:37:00,
2013-08-12 16:42:00,95.0,76.3,29.96,ENE,68,0.0,8.0,55,0.00,,---,0.00,VWS V14.01,2013-08-12 20:42:00,
2013-08-12 16:47:00,94.9,76.2,29.95,ENE,67,0.0,8.0,55,0.00,,---,0.00,VWS V14.01,2013-08-12 20:47:00,
2013-08-12 16:52:00,95.4,76.1,29.95,NE,40,6.0,8.0,54,0.00,,---,0.00,VWS V14.01,2013-08-12 20:52:00,
2013-08-12 16:57:00,95.4,76.1,29.95,East,84,2.0,10.0,54,0.00,,---,0.00,VWS V14.01,2013-08-12 20:57:00,
2013-08-12 17:00:00,95.4,75.6,29.95,ENE,59,0.0,10.0,53,0.00,,---,0.00,VWS V14.01,2013-08-12 21:00:00,
2013-08-12 17:02:00,95.6,76.3,29.95,NE,38,0.0,7.0,54,0.00,,---,0.00,VWS V14.01,2013-08-12 21:02:00,
2013-08-12 17:07:00,95.2,75.4,29.95,ENE,67,4.0,7.0,53,0.00,,---,0.00,VWS V14.01,2013-08-12 21:07:00,
2013-08-12 17:12:00,95.1,75.8,29.95,NE,54,6.0,9.0,54,0.00,,---,0.00,VWS V14.01,2013-08-12 21:12:00,
2013-08-12 17:17:00,95.2,75.4,29.95,NE,38,0.0,9.0,53,0.00,,---,0.00,VWS V14.01,2013-08-12 21:17:00,
2013-08-12 17:22:00,95.3,76.0,29.95,North,355,2.0,9.0,54,0.00,,---,0.00,VWS V14.01,2013-08-12 21:22:00,
2013-08-12 17:27:00,95.2,75.9,29.95,NE,42,4.0,9.0,54,0.00,,---,0.00,VWS V14.01,2013-08-12 21:27:00,
2013-08-12 17:30:00,95.2,76.5,29.95,NNE,22,0.0,9.0,55,0.00,,---,0.00,VWS V14.01,2013-08-12 21:30:00,
2013-08-12 17:32:00,95.1,76.4,29.95,NE,49,0.0,4.0,55,0.00,,---,0.00,VWS V14.01,2013-08-12 21:32:00,
2013-08-12 17:37:00,95.3,76.6,29.95,NE,51,0.0,8.0,55,0.00,,---,0.00,VWS V14.01,2013-08-12 21:37:00,
2013-08-12 17:42:00,95.1,76.4,29.95,ENE,66,3.0,8.0,55,0.00,,---,0.00,VWS V14.01,2013-08-12 21:42:00,
2013-08-12 17:47:00,94.9,76.2,29.95,NE,44,0.0,8.0,55,0.00,,---,0.00,VWS V14.01,2013-08-12 21:47:00,
2013-08-12 17:52:00,95.0,77.4,29.95,NNW,344,1.0,8.0,57,0.00,,---,0.00,VWS V14.01,2013-08-12 21:52:00,
2013-08-12 17:57:00,95.3,76.6,29.95,NE,55,2.0,8.0,55,0.00,,---,0.00,VWS V14.01,2013-08-12 21:57:00,
2013-08-12 18:00:00,95.1,76.9,29.95,NE,40,4.0,8.0,56,0.00,,---,0.00,VWS V14.01,2013-08-12 22:00:00,
2013-08-12 18:02:00,94.8,77.2,29.95,North,5,1.0,5.0,57,0.00,,---,0.00,VWS V14.01,2013-08-12 22:02:00,
2013-08-12 18:07:00,93.8,76.8,29.95,North,355,0.0,6.0,58,0.00,,---,0.00,VWS V14.01,2013-08-12 22:07:00,
2013-08-12 18:12:00,93.5,77.0,29.95,North,355,2.0,6.0,59,0.00,,---,0.00,VWS V14.01,2013-08-12 22:12:00,
2013-08-12 18:17:00,93.5,77.5,29.95,NNW,342,0.0,6.0,60,0.00,,---,0.00,VWS V14.01,2013-08-12 22:17:00,
2013-08-12 18:22:00,93.6,77.6,29.95,NNW,342,0.0,6.0,60,0.00,,---,0.00,VWS V14.01,2013-08-12 22:22:00,
2013-08-12 18:27:00,93.6,77.6,29.95,NNW,342,3.0,6.0,60,0.00,,---,0.00,VWS V14.01,2013-08-12 22:27:00,
2013-08-12 18:30:00,93.3,77.8,29.95,NNW,342,1.0,6.0,61,0.00,,---,0.00,VWS V14.01,2013-08-12 22:30:00,
2013-08-12 18:32:00,92.8,77.4,29.95,NNW,342,1.0,7.0,61,0.00,,---,0.00,VWS V14.01,2013-08-12 22:32:00,
2013-08-12 18:37:00,92.2,77.8,29.95,North,9,5.0,7.0,63,0.00,,---,0.00,VWS V14.01,2013-08-12 22:37:00,
2013-08-12 18:42:00,91.8,77.9,29.95,North,355,0.0,7.0,64,0.00,,---,0.00,VWS V14.01,2013-08-12 22:42:00,
2013-08-12 18:47:00,91.7,78.3,29.95,North,355,1.0,7.0,65,0.00,,---,0.00,VWS V14.01,2013-08-12 22:47:00,
2013-08-12 18:52:00,91.6,78.2,29.95,North,355,4.0,7.0,65,0.00,,---,0.00,VWS V14.01,2013-08-12 22:52:00,
2013-08-12 18:57:00,91.5,78.5,29.95,North,5,0.0,7.0,66,0.00,,---,0.00,VWS V14.01,2013-08-12 22:57:00,
2013-08-12 19:00:00,91.6,78.6,29.95,North,5,0.0,7.0,66,0.00,,---,0.00,VWS V14.01,2013-08-12 23:00:00,
2013-08-12 19:02:00,91.7,78.7,29.95,North,350,0.0,5.0,66,0.00,,---,0.00,VWS V14.01,2013-08-12 23:02:00,
2013-08-12 19:07:00,91.6,78.6,29.95,North,350,0.0,5.0,66,0.00,,---,0.00,VWS V14.01,2013-08-12 23:07:00,
2013-08-12 19:12:00,91.4,78.9,29.95,North,350,0.0,5.0,67,0.00,,---,0.00,VWS V14.01,2013-08-12 23:12:00,
2013-08-12 19:17:00,91.1,78.6,29.95,NNW,348,0.0,5.0,67,0.00,,---,0.00,VWS V14.01,2013-08-12 23:17:00,
2013-08-12 19:22:00,90.8,78.8,29.95,NNW,348,0.0,5.0,68,0.00,,---,0.00,VWS V14.01,2013-08-12 23:22:00,
2013-08-12 19:27:00,90.6,78.6,29.95,NNW,348,0.0,5.0,68,0.00,,---,0.00,VWS V14.01,2013-08-12 23:27:00,
2013-08-12 19:30:00,90.6,78.6,29.95,NNW,348,1.0,5.0,68,0.00,,---,0.00,VWS V14.01,2013-08-12 23:30:00,
2013-08-12 19:32:00,90.6,79.0,29.95,NE,53,0.0,1.0,69,0.00,,---,0.00,VWS V14.01,2013-08-12 23:32:00,
2013-08-12 19:37:00,90.5,78.9,29.95,NE,53,0.0,1.0,69,0.00,,---,0.00,VWS V14.01,2013-08-12 23:37:00,
2013-08-12 19:42:00,90.3,78.8,29.95,NE,53,0.0,1.0,69,0.00,,---,0.00,VWS V14.01,2013-08-12 23:42:00,
2013-08-12 19:47:00,89.9,78.4,29.95,North,355,0.0,4.0,69,0.00,,---,0.00,VWS V14.01,2013-08-12 23:47:00,
2013-08-12 19:52:00,89.3,78.2,29.95,North,355,0.0,4.0,70,0.00,,---,0.00,VWS V14.01,2013-08-12 23:52:00,
2013-08-12 19:57:00,88.9,78.3,29.95,North,355,0.0,4.0,71,0.00,,---,0.00,VWS V14.01,2013-08-12 23:57:00,
2013-08-12 20:00:00,88.8,78.2,29.95,North,355,0.0,4.0,71,0.00,,---,0.00,VWS V14.01,2013-08-13 00:00:00,
2013-08-12 20:02:00,88.7,78.1,29.95,North,355,0.0,0.0,71,0.00,,---,0.00,VWS V14.01,2013-08-13 00:02:00,
2013-08-12 20:07:00,88.6,78.4,29.95,North,355,0.0,1.0,72,0.00,,---,0.00,VWS V14.01,2013-08-13 00:07:00,
2013-08-12 20:12:00,88.3,78.6,29.94,North,355,0.0,1.0,73,0.00,,---,0.00,VWS V14.01,2013-08-13 00:12:00,
2013-08-12 20:17:00,87.7,78.8,29.94,North,355,0.0,1.0,75,0.00,,---,0.00,VWS V14.01,2013-08-13 00:17:00,
2013-08-12 20:22:00,87.0,78.9,29.95,North,355,0.0,1.0,77,0.00,,---,0.00,VWS V14.01,2013-08-13 00:22:00,
2013-08-12 20:27:00,86.5,78.8,29.95,North,355,0.0,1.0,78,0.00,,---,0.00,VWS V14.01,2013-08-13 00:27:00,
2013-08-12 20:30:00,86.3,78.6,29.95,North,355,0.0,1.0,78,0.00,,---,0.00,VWS V14.01,2013-08-13 00:30:00,
2013-08-12 20:32:00,86.0,78.3,29.95,North,355,0.0,0.0,78,0.00,,---,0.00,VWS V14.01,2013-08-13 00:32:00,
2013-08-12 20:37:00,85.8,78.5,29.95,North,355,0.0,0.0,79,0.00,,---,0.00,VWS V14.01,2013-08-13 00:37:00,
2013-08-12 20:42:00,85.7,78.4,29.95,North,355,0.0,0.0,79,0.00,,---,0.00,VWS V14.01,2013-08-13 00:42:00,
2013-08-12 20:47:00,85.6,78.3,29.96,North,355,0.0,0.0,79,0.00,,---,0.00,VWS V14.01,2013-08-13 00:47:00,
2013-08-12 20:52:00,85.3,78.4,29.96,North,355,0.0,0.0,80,0.00,,---,0.00,VWS V14.01,2013-08-13 00:52:00,
2013-08-12 20:57:00,85.1,78.2,29.96,North,355,0.0,1.0,80,0.00,,---,0.00,VWS V14.01,2013-08-13 00:57:00,
2013-08-12 21:00:00,85.0,78.1,29.96,North,355,0.0,1.0,80,0.00,,---,0.00,VWS V14.01,2013-08-13 01:00:00,
2013-08-12 21:02:00,84.9,78.0,29.96,North,355,0.0,0.0,80,0.00,,---,0.00,VWS V14.01,2013-08-13 01:02:00,
2013-08-12 21:07:00,84.8,78.3,29.96,North,355,0.0,1.0,81,0.00,,---,0.00,VWS V14.01,2013-08-13 01:07:00,
2013-08-12 21:12:00,84.3,77.8,29.96,North,351,0.0,3.0,81,0.00,,---,0.00,VWS V14.01,2013-08-13 01:12:00,
2013-08-12 21:17:00,84.0,77.9,29.97,NNW,338,0.0,3.0,82,0.00,,---,0.00,VWS V14.01,2013-08-13 01:17:00,
2013-08-12 21:22:00,83.9,77.8,29.97,NW,313,0.0,5.0,82,0.00,,---,0.00,VWS V14.01,2013-08-13 01:22:00,
2013-08-12 21:27:00,83.8,78.1,29.97,NW,311,0.0,6.0,83,0.00,,---,0.00,VWS V14.01,2013-08-13 01:27:00,
2013-08-12 21:30:00,83.7,78.0,29.97,West,280,0.0,6.0,83,0.00,,---,0.00,VWS V14.01,2013-08-13 01:30:00,
2013-08-12 21:32:00,83.5,77.8,29.98,West,280,0.0,1.0,83,0.00,,---,0.00,VWS V14.01,2013-08-13 01:32:00,
2013-08-12 21:37:00,83.3,78.0,29.98,NNW,327,0.0,5.0,84,0.00,,---,0.00,VWS V14.01,2013-08-13 01:37:00,
2013-08-12 21:42:00,83.2,77.9,29.97,NNW,329,0.0,6.0,84,0.00,,---,0.00,VWS V14.01,2013-08-13 01:42:00,
2013-08-12 21:47:00,83.1,78.1,29.98,West,279,0.0,6.0,85,0.00,,---,0.00,VWS V14.01,2013-08-13 01:47:00,
2013-08-12 21:52:00,83.0,78.0,29.98,NNW,343,0.0,6.0,85,0.00,,---,0.00,VWS V14.01,2013-08-13 01:52:00,
2013-08-12 21:57:00,82.9,77.9,29.98,NW,320,0.0,6.0,85,0.00,,---,0.00,VWS V14.01,2013-08-13 01:57:00,
2013-08-12 22:00:00,82.9,77.9,29.98,NW,305,0.0,6.0,85,0.00,,---,0.00,VWS V14.01,2013-08-13 02:00:00,
2013-08-12 22:02:00,82.9,77.9,29.98,NW,322,0.0,5.0,85,0.00,,---,0.00,VWS V14.01,2013-08-13 02:02:00,
2013-08-12 22:08:00,82.9,77.9,29.98,NNW,333,2.0,7.0,85,0.00,,---,0.00,VWS V14.01,2013-08-13 02:08:00,
2013-08-12 22:13:00,82.9,77.9,29.98,NNW,344,0.0,9.0,85,0.00,,---,0.00,VWS V14.01,2013-08-13 02:13:00,
2013-08-12 22:18:00,82.9,77.9,29.98,NNW,339,0.0,9.0,85,0.00,,---,0.00,VWS V14.01,2013-08-13 02:18:00,
2013-08-12 22:23:00,82.8,77.8,29.98,NNW,336,0.0,9.0,85,0.00,,---,0.00,VWS V14.01,2013-08-13 02:23:00,
2013-08-12 22:28:00,82.8,77.8,29.98,NW,321,0.0,9.0,85,0.00,,---,0.00,VWS V14.01,2013-08-13 02:28:00,
2013-08-12 22:30:00,82.8,77.8,29.98,NNE,26,3.0,9.0,85,0.00,,---,0.00,VWS V14.01,2013-08-13 02:30:00,
2013-08-12 22:33:00,82.7,77.7,29.98,NNW,333,1.0,6.0,85,0.00,,---,0.00,VWS V14.01,2013-08-13 02:33:00,
2013-08-12 22:38:00,82.7,77.7,29.98,NW,324,0.0,7.0,85,0.00,,---,0.00,VWS V14.01,2013-08-13 02:38:00,
2013-08-12 22:43:00,82.6,77.6,29.98,North,355,0.0,7.0,85,0.00,,---,0.00,VWS V14.01,2013-08-13 02:43:00,
2013-08-12 22:48:00,82.6,77.6,29.98,WNW,293,1.0,7.0,85,0.00,,---,0.00,VWS V14.01,2013-08-13 02:48:00,
2013-08-12 22:53:00,82.5,77.5,29.98,NNW,329,0.0,7.0,85,0.00,,---,0.00,VWS V14.01,2013-08-13 02:53:00,
2013-08-12 22:58:00,82.4,77.4,29.98,WNW,298,1.0,8.0,85,0.00,,---,0.00,VWS V14.01,2013-08-13 02:58:00,
2013-08-12 23:00:00,82.4,77.8,29.98,NNW,343,0.0,8.0,86,0.00,,---,0.00,VWS V14.01,2013-08-13 03:00:00,
2013-08-12 23:03:00,82.3,77.7,29.98,NNE,22,0.0,6.0,86,0.00,,---,0.00,VWS V14.01,2013-08-13 03:03:00,
2013-08-12 23:08:00,82.3,77.7,29.97,North,5,2.0,8.0,86,0.00,,---,0.00,VWS V14.01,2013-08-13 03:08:00,
2013-08-12 23:13:00,82.1,77.5,29.97,NNW,342,3.0,8.0,86,0.00,,---,0.00,VWS V14.01,2013-08-13 03:13:00,
2013-08-12 23:18:00,82.0,77.4,29.97,North,9,2.0,8.0,86,0.00,,---,0.00,VWS V14.01,2013-08-13 03:18:00,
2013-08-12 23:23:00,82.0,77.4,29.97,North,355,2.0,8.0,86,0.00,,---,0.00,VWS V14.01,2013-08-13 03:23:00,
2013-08-12 23:28:00,81.9,77.3,29.97,NNW,335,0.0,8.0,86,0.00,,---,0.00,VWS V14.01,2013-08-13 03:28:00,
2013-08-12 23:30:00,81.9,77.3,29.97,NNW,347,2.0,8.0,86,0.00,,---,0.00,VWS V14.01,2013-08-13 03:30:00,
2013-08-12 23:33:00,81.8,77.2,29.97,North,350,1.0,4.0,86,0.00,,---,0.00,VWS V14.01,2013-08-13 03:33:00,
2013-08-12 23:38:00,81.7,77.1,29.96,North,5,0.0,5.0,86,0.00,,---,0.00,VWS V14.01,2013-08-13 03:38:00,
2013-08-12 23:43:00,81.6,77.0,29.96,NNE,23,0.0,6.0,86,0.00,,---,0.00,VWS V14.01,2013-08-13 03:43:00,
2013-08-12 23:48:00,81.6,77.0,29.96,NNW,340,4.0,7.0,86,0.00,,---,0.00,VWS V14.01,2013-08-13 03:48:00,
2013-08-12 23:53:00,81.5,77.3,29.96,NNE,13,1.0,7.0,87,0.00,,---,0.00,VWS V14.01,2013-08-13 03:53:00,
2013-08-12 23:58:00,81.4,77.2,29.97,North,351,0.0,7.0,87,0.00,,---,0.00,VWS V14.01,2013-08-13 03:58:00,